Location: Unspecified
(48.8656°N, 0.0000°E)
Time: 02:24:02
(UTC+00:00)

Transit 2A Rocket - Pass Details

Date: 22 June 2019
Orbit: 588 x 915 km, 66.7° (Epoch: 17 July)

Event Time Altitude Azimuth Distance (km) Brightness Sun altitude
Rises 10:28:15 0° 213° (SSW) 3,538 8.5 58.6°
Reaches altitude 10° 10:30:46 10° 213° (SSW) 2,599 8.0 58.9°
Maximum altitude 10:36:54 90° 139° (SE) 905 6.7 59.5°
Drops below altitude 10° 10:42:48 10° 36° (NE) 2,512 7.7 60.2°
Sets 10:45:13 0° 36° (NE) 3,412 8.3 60.4°
